LiveATC.Net - Listen to live air traffic control over the Internet!


ICAO: KTAN  IATA: TAN   Airport: Taunton Municipal Airport
City: Taunton   State/Province: Massachusetts
Country: United States   Continent: North America
KTAN METAR Weather: KTAN 292052Z AUTO 31010KT 10SM FEW070 31/13 A3001 RMK AO2 SLP161 T03110133 55000
KTAN Flight Activity (FlightAware)
KTAN Airport Info   (AirNav) (iFlightPlanner)
KTAN VFR Sectional Chart   (iFlightPlanner) 
KTAN IFR Low Chart   (iFlightPlanner) 
KTAN CTAF
Feed Status: DOWN
Last heard on: 2015-03-02 19:28:03 (546 days 2 hours 11 minutes ago)
KTAN CTAF Audio Archives
FacilityFrequency
Mansfield (1B9) UNICOM123.000
Plymouth (KPYM) UNICOM123.000
Taunton (KTAN) UNICOM122.700


NOTICE

Unauthorized use prohibited. See LiveATC.net Terms of Service


Find LiveATC Audio Streams


Airport/ARTCC Code

Frequency
(e.g., 124.400, 128.75)
Site-wide search

Browse LiveATC Feeds
LiveATC Coverage Map
Top 50 LiveATC Feeds
Bad Weather Areas

LiveATC FAQ
Offer a LiveATC Feed
Contact LiveATC.net
Press Inquiries

LiveATC on iPhone
LiveATC on Android

Windows Phone
Windows 8/10

LiveATC Mobile
(Mobile browser)

ATC Audio Archives
Interesting Recordings

LiveATC Forums


Home Page
About LiveATC.net
Make a Donation
LiveATC Store

Terms of Use
Privacy Policy

Canadian Air Freqs

AIRMETs/SIGMETs

FAA Airport Status
Nat'l Airspace Status
Arrival Demand Charts


Server Software By:
Icecast.org
Liquidsoap